When you browse on this site, cookies collect data to enhance your experience and personalize the content and advertising you see.
Visit our Privacy Policy to learn more. By continuing to use the site, you agree to this use of cookies and data.
  • Em Portugal
  • Lista de países
  • Para 7 dias
  • Temperatura da água
  • Mapa do tempo
  • Widgets de tempo
  • user-avatar
    Iniciar Sessão

    Previsão horária em Klagenfurt

    Hoje, 29 Fevereiro, Sábado

    Tempo Temperatura Precipitação Vento Pressão Humidade
    00:00 -1°C° 0 mm 1 m/s 691 mmHg 56%
    01:00 -1°C° 0 mm 1 m/s 690 mmHg 52%
    02:00 -1°C° 0 mm 1 m/s 690 mmHg 53%
    03:00 -1°C° 0 mm 1 m/s 689 mmHg 54%
    04:00 -1°C° 0 mm 1 m/s 689 mmHg 56%
    05:00 -1°C° 0 mm 1 m/s 688 mmHg 57%
    06:00 -1°C° 0 mm 1 m/s 688 mmHg 57%
    07:00 0°C° 0 mm 1 m/s 687 mmHg 58%
    08:00 +1°C° 0 mm 1 m/s 687 mmHg 56%
    09:00 +2°C° 0 mm 2 m/s 687 mmHg 54%
    10:00 +3°C° 0 mm 2 m/s 687 mmHg 52%
    11:00 +4°C° 0 mm 2 m/s 686 mmHg 52%
    12:00 +4°C° 0 mm 3 m/s 686 mmHg 52%
    13:00 +5°C° 0 mm 3 m/s 686 mmHg 52%
    14:00 +4°C° 0 mm 3 m/s 685 mmHg 56%
    15:00 +4°C° 0 mm 3 m/s 684 mmHg 61%
    16:00 +4°C° 0 mm 3 m/s 683 mmHg 66%
    17:00 +2°C° 0 mm 3 m/s 683 mmHg 71%
    18:00 +1°C° 0 mm 3 m/s 683 mmHg 76%
    19:00 +1°C° 0 mm 2 m/s 683 mmHg 82%
    20:00 -1°C° 0 mm 2 m/s 682 mmHg 81%
    21:00 -1°C° 0 mm 2 m/s 682 mmHg 81%
    22:00 -1°C° 0 mm 2 m/s 682 mmHg 81%
    23:00 -1°C° 0 mm 2 m/s 682 mmHg 84%

    Amanhã, 1 Março, Domingo

    Tempo Temperatura Precipitação Vento Pressão Humidade
    00:00 +1°C° 0 mm 2 m/s 683 mmHg 87%
    01:00 +1°C° 0 mm 2 m/s 683 mmHg 90%
    02:00 +2°C° 0.1 mm 1 m/s 682 mmHg 92%
    03:00 +2°C° 0.1 mm 1 m/s 682 mmHg 93%
    04:00 +3°C° 0.1 mm 1 m/s 682 mmHg 94%
    05:00 +3°C° 0.3 mm 1 m/s 682 mmHg 94%
    06:00 +3°C° 0.3 mm 1 m/s 682 mmHg 95%
    07:00 +2°C° 0.3 mm 0 m/s 682 mmHg 96%
    08:00 +2°C° 1.2 mm 0 m/s 682 mmHg 96%
    09:00 +2°C° 1.2 mm 0 m/s 682 mmHg 96%
    10:00 +3°C° 1.2 mm 0 m/s 681 mmHg 96%
    11:00 +3°C° 2.6 mm 0 m/s 681 mmHg 97%
    12:00 +3°C° 2.6 mm 0 m/s 681 mmHg 97%
    13:00 +3°C° 2.6 mm 0 m/s 681 mmHg 98%
    14:00 +3°C° 3.2 mm 0 m/s 680 mmHg 98%
    15:00 +2°C° 3.2 mm 0 m/s 679 mmHg 98%
    16:00 +2°C° 3.2 mm 0 m/s 679 mmHg 98%
    17:00 +2°C° 2.7 mm 0 m/s 679 mmHg 98%
    18:00 +2°C° 2.7 mm 0 m/s 678 mmHg 98%
    19:00 +2°C° 2.7 mm 0 m/s 678 mmHg 99%
    20:00 +2°C° 2.3 mm 0 m/s 678 mmHg 99%
    21:00 +4°C° 2.3 mm 1 m/s 678 mmHg 99%
    22:00 +4°C° 2.3 mm 1 m/s 677 mmHg 99%
    23:00 +4°C° 0.4 mm 1 m/s 677 mmHg 98%

    Depois de amanhã, 2 Março, Segunda-feira

    Tempo Temperatura Precipitação Vento Pressão Humidade
    00:00 +4°C° 0.4 mm 1 m/s 677 mmHg 98%
    01:00 +4°C° 0.4 mm 1 m/s 676 mmHg 98%
    02:00 +4°C° 0.1 mm 1 m/s 676 mmHg 98%
    03:00 +4°C° 0.1 mm 1 m/s 677 mmHg 97%
    04:00 +4°C° 0.1 mm 1 m/s 677 mmHg 97%
    05:00 +4°C° 0 mm 1 m/s 677 mmHg 97%
    06:00 +3°C° 0 mm 1 m/s 678 mmHg 96%
    07:00 +3°C° 0 mm 1 m/s 678 mmHg 96%
    08:00 +4°C° 0.1 mm 1 m/s 678 mmHg 94%
    09:00 +5°C° 0.1 mm 1 m/s 678 mmHg 93%
    10:00 +4°C° 0.1 mm 2 m/s 678 mmHg 91%
    11:00 +5°C° 0.1 mm 2 m/s 678 mmHg 88%
    12:00 +6°C° 0.1 mm 2 m/s 677 mmHg 86%
    13:00 +6°C° 0.1 mm 2 m/s 677 mmHg 83%
    14:00 +6°C° 0.5 mm 2 m/s 676 mmHg 87%
    15:00 +6°C° 0.5 mm 1 m/s 675 mmHg 91%
    16:00 +6°C° 0.5 mm 1 m/s 674 mmHg 95%
    17:00 +6°C° 3.3 mm 1 m/s 674 mmHg 96%
    18:00 +6°C° 3.3 mm 1 m/s 673 mmHg 97%
    19:00 +4°C° 3.3 mm 2 m/s 673 mmHg 98%
    20:00 +5°C° 6 mm 1 m/s 672 mmHg 98%
    21:00 +5°C° 6 mm 1 m/s 671 mmHg 98%
    22:00 +4°C° 6 mm 1 m/s 671 mmHg 98%
    23:00 +4°C° 4.4 mm 1 m/s 671 mmHg 98%

    3 Março, Terça-feira

    Tempo Temperatura Precipitação Vento Pressão Humidade
    00:00 +4°C° 4.4 mm 1 m/s 670 mmHg 98%
    01:00 +5°C° 4.4 mm 1 m/s 670 mmHg 98%
    02:00 +4°C° 2.3 mm 1 m/s 670 mmHg 98%
    03:00 +4°C° 2.3 mm 1 m/s 670 mmHg 98%
    04:00 +4°C° 2.3 mm 1 m/s 670 mmHg 98%
    05:00 +2°C° 3 mm 2 m/s 671 mmHg 97%
    06:00 +1°C° 3 mm 2 m/s 672 mmHg 96%
    07:00 -1°C° 3 mm 3 m/s 672 mmHg 95%
    08:00 -1°C° 1.1 mm 3 m/s 673 mmHg 92%
    09:00 -1°C° 1.1 mm 2 m/s 674 mmHg 88%
    10:00 +1°C° 1.1 mm 2 m/s 675 mmHg 85%
    11:00 +1°C° 0.4 mm 2 m/s 675 mmHg 85%
    12:00 +1°C° 0.4 mm 2 m/s 676 mmHg 85%
    13:00 +1°C° 0.4 mm 2 m/s 676 mmHg 86%
    14:00 +1°C° 0.1 mm 2 m/s 676 mmHg 86%
    15:00 +3°C° 0.1 mm 1 m/s 677 mmHg 85%
    16:00 +3°C° 0.1 mm 1 m/s 677 mmHg 85%
    17:00 +2°C° 0 mm 1 m/s 677 mmHg 86%
    18:00 +1°C° 0 mm 1 m/s 678 mmHg 86%
    19:00 +1°C° 0 mm 1 m/s 679 mmHg 87%
    20:00 0°C° 0 mm 1 m/s 679 mmHg 87%
    21:00 0°C° 0 mm 1 m/s 679 mmHg 87%
    22:00 -1°C° 0 mm 1 m/s 680 mmHg 87%
    23:00 -1°C° 0 mm 1 m/s 680 mmHg 87%

    4 Março, Quarta-feira

    Tempo Temperatura Precipitação Vento Pressão Humidade
    00:00 -1°C° 0 mm 1 m/s 680 mmHg 87%
    01:00 -2°C° 0 mm 1 m/s 680 mmHg 86%
    02:00 -2°C° 0 mm 1 m/s 681 mmHg 86%
    03:00 -2°C° 0 mm 1 m/s 681 mmHg 85%
    04:00 -2°C° 0 mm 1 m/s 681 mmHg 84%
    05:00 -2°C° 0 mm 1 m/s 681 mmHg 83%
    06:00 -3°C° 0 mm 1 m/s 682 mmHg 82%
    07:00 -3°C° 0 mm 1 m/s 682 mmHg 81%
    08:00 -1°C° 0 mm 1 m/s 682 mmHg 79%
    09:00 +1°C° 0 mm 1 m/s 683 mmHg 76%
    10:00 +3°C° 0 mm 1 m/s 683 mmHg 74%
    11:00 +4°C° 0 mm 1 m/s 683 mmHg 73%
    12:00 +4°C° 0 mm 0 m/s 683 mmHg 73%
    13:00 +4°C° 0 mm 0 m/s 683 mmHg 72%
    14:00 +5°C° 0.1 mm 1 m/s 683 mmHg 72%
    15:00 +5°C° 0.1 mm 1 m/s 683 mmHg 73%
    16:00 +5°C° 0.1 mm 1 m/s 683 mmHg 73%
    17:00 +3°C° 0.1 mm 1 m/s 683 mmHg 77%
    18:00 +1°C° 0.1 mm 1 m/s 683 mmHg 81%
    19:00 0°C° 0.1 mm 1 m/s 684 mmHg 84%
    20:00 -1°C° 0 mm 1 m/s 684 mmHg 84%
    21:00 -1°C° 0 mm 1 m/s 684 mmHg 84%
    22:00 -2°C° 0 mm 0 m/s 684 mmHg 84%
    23:00 -3°C° 0 mm 0 m/s 684 mmHg 84%

    5 Março, Quinta-feira

    Tempo Temperatura Precipitação Vento Pressão Humidade
    00:00 -3°C° 0 mm 0 m/s 684 mmHg 84%
    01:00 -3°C° 0 mm 0 m/s 684 mmHg 84%
    02:00 -4°C° 0 mm 0 m/s 684 mmHg 85%
    03:00 -4°C° 0 mm 0 m/s 683 mmHg 85%
    04:00 -4°C° 0 mm 0 m/s 683 mmHg 86%
    05:00 -4°C° 0 mm 0 m/s 683 mmHg 86%
    06:00 -4°C° 0 mm 0 m/s 683 mmHg 87%
    07:00 -4°C° 0 mm 0 m/s 682 mmHg 87%
    08:00 -1°C° 0 mm 1 m/s 682 mmHg 85%
    09:00 +1°C° 0 mm 1 m/s 682 mmHg 84%
    10:00 +3°C° 0 mm 1 m/s 682 mmHg 82%
    11:00 +4°C° 0.1 mm 1 m/s 682 mmHg 80%
    12:00 +3°C° 0.1 mm 2 m/s 681 mmHg 79%
    13:00 +4°C° 0.1 mm 2 m/s 681 mmHg 78%
    14:00 +4°C° 0.1 mm 2 m/s 680 mmHg 80%
    15:00 +2°C° 0.1 mm 3 m/s 679 mmHg 83%
    16:00 +2°C° 0.1 mm 3 m/s 678 mmHg 86%
    17:00 +1°C° 0.2 mm 3 m/s 678 mmHg 89%
    18:00 +2°C° 0.2 mm 2 m/s 677 mmHg 92%
    19:00 +1°C° 0.2 mm 2 m/s 677 mmHg 95%
    20:00 +1°C° 0.2 mm 2 m/s 677 mmHg 95%
    21:00 +2°C° 0.2 mm 1 m/s 676 mmHg 96%
    22:00 +2°C° 0.2 mm 1 m/s 676 mmHg 96%
    23:00 +2°C° 1.3 mm 1 m/s 675 mmHg 97%
    Mostrar mais